Location: Cit� du Priatec
(47.7508°N, 3.3433°W)
Time: 13:04:04
(UTC+00:00)

Daily predictions for brighter satellites

Satellite Brightness Start Highest point End
(mag) Time Altitude Azimuth Time Altitude Azimuth Time Altitude Azimuth
Cosmos 371 Rocket 3.5 20:22:32 10° NNW 20:27:20 60° ENE 20:32:05 10° SE
ARIANE 5 R/B 4.2 20:27:40 10° ESE 20:31:03 22° ENE 20:34:25 10° NNE
Cosmos 1271 Rocket 4.1 20:30:01 10° NNE 20:33:22 25° ENE 20:36:43 10° SE
USA 276 2.3 20:31:45 10° WNW 20:34:54 70° NNE 20:38:03 10° E
Helios 1A Rocket 4.3 20:32:15 10° SSW 20:36:03 38° W 20:39:52 10° NNW
BREEZE-M DEB (TANK) 2.1 20:33:32 10° WNW 20:36:11 80° SSW 20:42:16 10° ESE
SPOT 1/Viking Rocket 4.0 20:32:06 10° SE 20:37:03 47° ENE 20:42:04 10° N
Cosmos 1076 Rocket 3.6 20:34:03 10° S 20:38:20 62° E 20:42:39 10° NNE
Cosmos 1697 Rocket 3.9 20:33:20 10° NW 20:38:37 41° WSW 20:43:52 10° S
ATLAS 5 CENTAUR R/B 4.4 20:37:00 10° NNW 20:39:57 15° NNE 20:43:12 10° NE
SAR-Lupe-4 4.2 20:37:00 10° N 20:40:34 61° WNW 20:44:05 10° SSW
OBJECT-B 3.4 20:38:55 10° SW 20:41:25 21° W 20:43:55 10° NW
ATLAS 2AS CENTAUR R/B 3.3 20:35:52 10° SW 20:43:48 77° NW 20:51:32 10° NE
Cosmos 773 Rocket 4.3 20:41:38 10° SSW 20:46:50 72° WNW 20:52:01 10° NNE
Cosmos 1833 Rocket 4.0 20:43:33 10° SW 20:48:57 46° NW 20:54:23 10° NNE
ATLAS 3B R/B 2.9 20:42:14 10° NW 20:49:21 80° SW 20:56:42 10° SSE
Terra 3.4 20:48:05 10° ESE 20:51:41 22° ENE 20:55:17 10° NNE
SPOT 5 3.8 20:50:48 11° ESE 20:54:13 27° ENE 20:57:56 10° N
Cosmos 2082 Rocket 2.5 20:49:54 10° SSW 20:55:31 75° WNW 21:01:14 10° NNE
Cosmos 1092 Rocket 4.2 20:50:20 10° SSE 20:56:21 52° E 21:02:27 10° NNE
Cosmos 1633 2.8 20:54:05 10° SSW 20:57:40 70° W 21:01:18 10° N
Cosmos 2278 4.0 20:53:01 10° NNW 20:58:39 65° WSW 21:04:14 10° SSE
BREEZE-M DEB (TANK) 1.6 20:58:04 10° WSW 21:01:09 87° SSE 21:03:00 10° ENE
ERS-1 Rocket 3.7 21:00:35 13° SE 21:04:35 38° ENE 21:09:14 10° N
Cosmos 332 Rocket 3.8 20:59:46 10° NNW 21:04:41 79° ENE 21:08:58 14° SSE
Cosmos 2360 Rocket 3.4 21:00:36 10° NNW 21:05:33 30° NE 21:10:08 12° ESE
Cosmos 1606 4.0 21:02:10 10° NNW 21:05:42 39° W 21:09:15 10° SSW
Cosmos 158 Rocket 4.0 21:02:08 10° S 21:07:14 67° ESE 21:12:30 10° NNE
Cosmos 2026 Rocket 4.2 21:03:13 10° SSE 21:09:20 53° E 21:15:23 10° NNE
GP-B 3.4 21:08:24 10° NNE 21:12:44 49° E 21:16:13 15° SSE
ISS -3.2 21:10:41 10° WNW 21:13:56 45° SSW 21:15:56 20° SSE
Cosmos 2333 Rocket 4.0 21:11:31 10° N 21:15:48 21° NE 21:20:04 10° E
Landsat 7 4.5 21:11:51 10° S 21:16:30 54° W 21:21:11 10° NNW
Nadezhda 4 Rocket 4.3 21:10:43 10° SSW 21:16:52 72° WNW 21:23:07 10° N
Meteor 1-26 Rocket 4.3 21:12:56 10° N 21:18:56 76° ENE 21:23:55 14° SSE
Spot 2 Rocket 3.5 21:14:48 15° SSE 21:19:06 71° ENE 21:24:12 10° N
SPOT 3 Rocket 4.0 21:14:45 10° S 21:19:54 60° WSW 21:25:06 10° NNW
Cosmos 1812 3.8 21:17:46 10° N 21:21:11 29° ENE 21:23:04 20° ESE
Cosmos 1680 Rocket 3.9 21:17:34 10° S 21:22:30 42° ESE 21:27:28 10° NE
CZ-2C R/B 3.6 21:20:21 10° NNE 21:24:55 83° ESE 21:29:23 10° SSW
Cosmos 1980 Rocket 3.6 21:21:55 10° NW 21:26:52 33° WSW 21:31:49 10° SSW
Okean 3 Rocket 4.1 21:24:58 19° SSE 21:27:51 43° E 21:32:07 10° NNE
RESURS DK-1 4.3 21:24:13 10° WSW 21:27:59 33° NW 21:31:47 10° NNE
USA 245 3.9 21:25:06 13° S 21:29:44 74° WSW 21:33:56 10° NNW
USA 234 4.3 21:25:22 10° E 21:31:30 44° NNE 21:37:38 10° WNW
Cosmos 1933 3.9 21:33:05 10° NNW 21:37:04 55° W 21:40:22 14° S
Cosmos 2322 Rocket 2.2 21:32:26 10° NNW 21:38:06 75° ENE 21:41:46 22° SE
Cosmos 1428 Rocket 4.4 21:32:32 10° S 21:38:41 85° E 21:44:49 10° N
Cosmos 304 Rocket 4.3 21:34:11 10° NNW 21:38:52 56° WSW 21:42:24 17° S
Resurs 01 Rocket 3.5 21:37:30 10° SSW 21:41:16 27° W 21:45:04 10° NW
Cosmos 1408 Rocket 4.4 21:40:12 24° SE 21:41:46 31° E 21:45:37 10° NNE
Cosmos 2151 4.0 21:38:58 10° SSW 21:43:03 46° WNW 21:47:12 10° N
CARTOSAT-1 4.0 21:46:36 18° S 21:49:39 59° W 21:53:56 10° NNW
Cosmos 2084 3.7 21:48:52 24° S 21:50:49 41° ESE 21:54:45 10° NE
Cosmos 1553 Rocket 3.9 21:45:36 10° N 21:51:41 73° E 21:55:36 23° SSE
Gbstr 26 Del rocket 3.0 21:50:21 10° WNW 21:54:01 52° SSW 21:55:27 33° SSE
Meteor 2-3 Rocket 4.2 21:48:26 10° SSW 21:54:02 62° WNW 21:59:45 10° N
Cosmos 1862 3.5 21:57:03 34° SSE 21:58:28 53° E 22:02:22 10° NNE
Cosmos 2219 Rocket 3.4 21:54:30 10° NNW 21:59:30 32° NE 22:02:58 17° ESE
Cosmos 1624 Rocket 4.0 21:55:03 10° NNW 22:00:17 77° ENE 22:02:57 29° SSE
Cosmos 1782 3.6 21:59:24 10° NNW 22:03:16 47° W 22:05:38 21° SSW
Cosmos 2228 Rocket 4.4 22:01:01 10° NNE 22:04:43 26° ENE 22:06:05 22° E
NOSS 2-1 (E) 3.3 22:05:22 40° ESE 22:05:22 40° ESE 22:08:13 10° NE
Cosmos 1515 Rocket 3.7 22:00:40 10° N 22:05:04 58° ENE 22:06:43 35° SE
H-2A R/B 3.9 22:02:09 10° NNE 22:06:11 44° E 22:07:15 36° SE
SL-16 R/B 2.7 22:01:02 10° NW 22:06:34 54° WSW 22:09:55 23° S
ARIANE 5 R/B 3.4 22:04:24 20° SSW 22:07:12 48° W 22:11:32 10° NNW
NOSS 3-1 (C) 4.3 22:01:12 10° NW 22:08:24 62° NE 22:14:30 20° ESE
Cosmos 1271 Rocket 4.4 22:05:51 10° NNW 22:09:20 29° W 22:12:03 14° SSW
COSMOS 2455 3.7 22:09:10 27° SE 22:10:16 28° ESE 22:15:18 10° NE
Cosmos 2237 4.2 22:05:05 10° NNW 22:10:49 82° WSW 22:13:45 30° SSE
USA 276 3.1 22:08:05 10° W 22:10:46 33° SW 22:10:46 33° SW
Cosmos 1420 Rocket 4.2 22:05:57 10° NNW 22:11:16 65° ENE 22:13:43 32° SE
COSMOS 2428 3.8 22:09:05 10° NNW 22:14:17 34° NE 22:17:35 19° ESE
Meteor 2-6 Rocket 4.1 22:10:39 10° NNW 22:16:05 82° W 22:18:52 30° S
Cosmos 1655 Rocket 4.1 22:12:44 27° SSE 22:16:10 60° E 22:22:27 10° NNE
Cosmos 1766 Rocket 4.1 22:14:49 17° SSW 22:18:01 57° WNW 22:22:21 10° N
Cosmos 1151 Rocket 3.9 22:13:58 10° NNW 22:18:07 45° W 22:20:30 23° SSW
Cosmos 1417 Rocket 4.5 22:12:36 10° N 22:18:58 86° W 22:22:34 28° S
S3M 4.0 22:15:35 10° N 22:22:01 83° E 22:25:25 30° SSE
USA 229 DEB 4.5 22:15:31 10° NW 22:22:32 51° NE 22:28:16 18° ESE
Cosmos 1328 Rocket 4.1 22:18:16 10° NNW 22:22:37 53° W 22:24:43 28° SSW
USA 229 4.5 22:15:37 10° NW 22:22:38 51° NE 22:28:23 17° ESE
ATLAS 5 CENTAUR R/B 3.4 22:21:09 10° NNW 22:26:01 36° NE 22:30:39 15° E
Cosmos 1174 3.2 22:23:26 10° NNW 22:26:26 61° NE 22:26:29 60° ENE
Terra 2.3 22:26:49 28° SSW 22:29:04 54° W 22:33:46 10° NNW
COSMOS 2487 4.2 22:31:49 20° ENE 22:31:49 20° ENE 22:33:29 10° NE
Cosmos 1452 Rocket 4.0 22:25:38 10° NNW 22:30:45 50° ENE 22:32:49 32° ESE
SPOT 5 3.9 22:30:02 21° SW 22:32:13 33° W 22:36:13 10° NNW
ALOS 2 4.2 22:33:57 20° E 22:35:15 23° ENE 22:38:45 10° NNE
USA 267 3.3 22:33:04 10° ENE 22:39:29 55° SE 22:45:52 10° SSW
Cosmos 2056 Rocket 4.0 22:35:09 10° NNW 22:40:21 52° WSW 22:42:28 32° SSW
SL-27 R/B 2.7 22:39:50 45° SW 22:40:45 66° WNW 22:44:21 10° NNE
Meteor 1-27 Rocket 3.7 22:36:23 10° N 22:42:03 79° ENE 22:44:14 39° SSE
NOSS 3-1 (A) 4.3 22:35:52 10° NW 22:43:06 63° NE 22:48:48 22° ESE
ERS-1 Rocket 4.4 22:40:34 18° SW 22:43:26 31° W 22:47:54 10° NNW
NOSS 2-1 (C) 3.5 22:48:04 31° WSW 22:49:21 55° NW 22:52:44 10° NE
Cosmos 1805 Rocket 3.8 22:49:13 47° ESE 22:49:42 50° E 22:54:00 10° NNE
Cosmos 2360 Rocket 2.6 22:44:21 10° NW 22:49:50 54° WSW 22:51:53 35° SSW
IRIDIUM 104 4.3 22:45:29 10° N 22:50:44 75° E 22:52:18 46° SSE
NOSS 2-1 (D) 3.8 22:55:30 25° WSW 22:57:05 46° NW 23:00:25 10° NNE
Cosmos 1833 4.3 22:56:03 23° SW 22:59:50 78° WNW 23:05:40 10° NNE
IRIDIUM 114 4.2 22:54:37 10° N 22:59:53 88° E 23:01:25 48° S
Cosmos 1500 Rocket 3.6 22:59:40 48° SSW 23:00:48 73° W 23:05:15 10° N
Cosmos 2333 Rocket 2.1 22:55:09 10° NNW 23:00:50 86° WSW 23:02:38 46° SSE
IRIDIUM 103 4.3 23:03:48 10° N 23:09:02 78° W 23:10:33 47° SSW
Cosmos 972 Rocket 3.9 23:07:27 47° S 23:09:03 82° ESE 23:14:05 10° NNE
COBE Rocket 3.7 23:09:07 58° S 23:10:01 82° WSW 23:14:45 10° NNW
Cosmos 2322 3.7 23:05:20 10° NNW 23:11:04 77° WSW 23:12:44 48° S
Cosmos 292 Rocket 4.5 23:06:41 10° NW 23:11:10 42° WSW 23:12:09 37° SW
NOSS 0 Rocket 4.4 23:07:05 10° NNW 23:13:13 55° NE 23:16:01 31° ESE
USA 234 3.3 23:10:02 25° ESE 23:14:06 81° NNE 23:20:41 10° NW
Cosmos 468 4.4 23:16:08 55° SSE 23:17:05 67° ESE 23:22:18 10° NNE
Cosmos 2297 Rocket 3.7 23:17:11 20° E 23:17:11 20° E 23:21:14 10° NE
Lacrosse 5 3.8 23:21:58 15° E 23:21:58 15° E 23:23:21 10° ENE
Cosmos 1743 Rocket 4.3 23:19:29 35° WSW 23:20:49 47° WNW 23:25:08 10° N
Cosmos 2237 Rocket 3.2 23:16:02 10° NNW 23:21:23 40° NE 23:24:02 26° ESE
Cosmos 2322 Rocket 4.0 23:17:43 10° WNW 23:21:29 19° W 23:23:35 15° SW
Cosmos 1500 4.2 23:26:57 37° ENE 23:26:57 37° ENE 23:30:01 10° NNE
Cosmos 2227 Rocket 3.8 23:28:53 19° E 23:28:55 19° E 23:32:46 10° ENE
Sich 1 2.9 23:28:46 73° SSW 23:29:10 83° W 23:33:32 10° N
Cosmos 2285 Rocket 4.0 23:24:23 10° NNW 23:30:39 68° WSW 23:32:33 45° S
Meteor 1-25 Rocket 4.1 23:30:16 52° S 23:31:44 86° E 23:37:20 10° NNE
Okean 1 3.3 23:27:49 10° N 23:31:46 71° ENE 23:31:46 71° ENE
Cosmos 1633 Rocket 3.3 23:33:06 52° E 23:33:06 52° E 23:37:20 10° NNE
Cosmos 494 Rocket 3.8 23:33:16 61° SSE 23:34:03 74° ESE 23:39:11 10° NNE
Cosmos 2315 Rocket 4.4 23:28:38 10° NNW 23:34:46 54° W 23:37:07 36° SSW
Cosmos 1666 Rocket 3.5 23:37:07 70° ESE 23:37:15 71° E 23:41:42 10° NNE
Gblst 52 Del rocket 4.5 23:33:28 10° WNW 23:39:47 82° SSW 23:43:37 30° ESE
Cosmos 1048 Rocket 4.0 23:39:38 50° SW 23:40:57 77° WNW 23:46:07 10° NNE
Cosmos 2228 Rocket 4.1 23:38:59 10° NNW 23:43:00 34° W 23:43:34 33° WSW
Cosmos 2219 Rocket 2.5 23:38:18 10° NW 23:43:41 50° WSW 23:44:40 45° SW
Cosmos 489 Rocket 4.5 23:43:33 42° SSW 23:45:55 85° WNW 23:52:20 10° NNE
SL-08 R/B 4.5 23:45:17 49° SSE 23:46:58 72° E 23:53:08 10° NNE
Meteor 1-19 Rocket 4.1 23:42:41 10° NNW 23:48:22 80° W 23:49:32 56° S
SL-16 R/B 3.9 23:43:41 10° N 23:48:28 27° NE 23:52:42 12° E
Cosmos 1602 4.1 23:52:57 55° WNW 23:52:57 55° WNW 23:56:40 10° N
